Waarnemingen

Advertentie
Mijn weer
Huesca, Spanje (8094): temperatuur & dauwpunt: 19.02.2018 10:00:00 - 25.02.2018 10:00:00 (CET)Huesca, Spanje (8094): windsnelheid: 19.02.2018 10:00:00 - 25.02.2018 10:00:00 (CET)Huesca, Spanje (8094): windrichting: 19.02.2018 10:00:00 - 25.02.2018 10:00:00 (CET)Huesca, Spanje (8094): luchtdruk: 19.02.2018 10:00:00 - 25.02.2018 10:00:00 (CET)Huesca, Spanje (8094): zicht: 19.02.2018 10:00:00 - 25.02.2018 10:00:00 (CET)Huesca, Spanje (8094): neerslag: 19.02.2018 10:00:00 - 25.02.2018 10:00:00 (CET)
Datum & Tijd tt [°C] td [°C] ff [km/u] ff [kn] dd ppp [hPa] vv [km] rr [mm]
25.02.2018 10:00:00 2,1 -2,6 8 4 WNW 1012,3 - -
25.02.2018 09:00:00 0,5 -4,0 5 3 W 1012,7 - 0,0
25.02.2018 08:00:00 -0,3 -4,4 5 3 W 1012,4 - 0,0
25.02.2018 07:00:00 0,1 -4,4 4 2 NW 1012,3 - -
25.02.2018 06:00:00 -1,0 -4,7 2 1 O 1012,5 - 0,0
25.02.2018 05:00:00 -0,8 -4,7 2 1 NNO 1012,2 - 0,0
25.02.2018 04:00:00 -0,5 -4,9 2 1 NO 1012,1 - -
25.02.2018 03:00:00 -0,1 -4,5 4 2 ONO 1012,0 - 0,0
25.02.2018 02:00:00 0,4 -4,3 2 1 N 1011,9 - 0,0
25.02.2018 01:00:00 1,9 -4,0 4 2 W 1011,4 - -
25.02.2018 00:00:00 1,9 -4,0 4 2 W 1011,1 - 0,0
24.02.2018 23:00:00 1,9 -4,6 4 2 WZW 1011,2 - 0,0
24.02.2018 22:00:00 3,0 -4,5 4 2 W 1010,4 - -
24.02.2018 21:00:00 3,3 -4,9 4 2 NNW 1010,0 - 0,0
24.02.2018 20:00:00 4,3 -4,7 4 2 NW 1009,4 - 0,0
24.02.2018 19:00:00 6,0 -4,2 4 2 WNW 1008,5 - -
24.02.2018 18:00:00 8,3 -4,5 2 1 WZW 1007,5 - 0,0
24.02.2018 17:00:00 8,7 -4,2 4 2 NW 1007,1 - 0,0
24.02.2018 16:00:00 8,9 -5,0 5 3 ZW 1006,8 - -
24.02.2018 15:00:00 8,4 -4,1 5 3 Z 1007,3 - 0,0
24.02.2018 14:00:00 6,9 -3,9 5 3 W 1008,1 - 0,0
24.02.2018 13:00:00 6,7 -2,7 5 3 ZW 1008,2 - -
24.02.2018 12:00:00 5,8 -2,8 9 5 WZW 1008,5 - 0,0
24.02.2018 11:00:00 4,5 -5,0 5 3 ZO 1008,9 - 0,0
24.02.2018 10:00:00 2,0 -5,0 4 2 O 1009,5 - -
24.02.2018 09:00:00 -1,1 -5,5 4 2 ONO 1009,9 - 0,0
24.02.2018 08:00:00 -3,0 -6,3 8 4 ONO 1010,2 - 0,0
24.02.2018 07:00:00 -3,5 -6,5 5 3 NNO 1009,9 - -
24.02.2018 06:00:00 -3,0 -5,5 2 1 NNO 1009,6 - 0,0
24.02.2018 05:00:00 -2,5 -5,0 4 2 WNW 1009,5 - 0,0
24.02.2018 04:00:00 -1,3 -4,6 5 3 NW 1009,1 - -
24.02.2018 03:00:00 -1,1 -4,8 5 3 NW 1009,2 - 0,0
24.02.2018 02:00:00 -0,9 -4,3 8 4 WNW 1009,1 - 0,0
24.02.2018 01:00:00 -0,8 -4,3 4 2 WNW 1009,1 - -
24.02.2018 00:00:00 0,3 -5,5 8 4 ONO 1008,7 - 0,0
23.02.2018 23:00:00 0,0 -4,6 5 3 ONO 1008,8 - 0,0
23.02.2018 22:00:00 0,4 -3,9 8 4 ONO 1008,4 - -
23.02.2018 21:00:00 1,0 -4,1 4 2 NW 1007,9 - 0,0
23.02.2018 20:00:00 1,7 -3,8 4 2 WNW 1007,7 - 0,0
23.02.2018 19:00:00 3,3 -3,5 5 3 W 1006,8 - -
23.02.2018 18:00:00 5,7 -3,4 11 6 WZW 1005,6 - 0,0
23.02.2018 17:00:00 7,5 -4,0 9 5 WZW 1004,7 - 0,0
23.02.2018 16:00:00 8,0 -8,1 5 3 WNW 1004,6 15 -
23.02.2018 15:00:00 7,6 -9,3 5 3 W 1005,0 - 0,0
23.02.2018 14:00:00 6,8 -8,8 8 4 Z 1005,7 - 0,0
23.02.2018 13:00:00 5,5 -9,1 5 3 O 1006,6 15 -
23.02.2018 12:00:00 4,3 -8,8 8 4 ZO 1007,3 - 0,0
23.02.2018 11:00:00 2,6 -9,0 8 4 OZO 1007,6 - 0,0
23.02.2018 10:00:00 -0,7 -8,4 2 1 N 1008,5 15 -
23.02.2018 09:00:00 -2,7 -8,0 4 2 WNW 1008,7 - 0,0
23.02.2018 08:00:00 -3,7 -9,1 8 4 WNW 1008,3 - 0,0
23.02.2018 07:00:00 -3,3 -9,3 5 3 W 1008,2 - -
23.02.2018 06:00:00 -2,9 -9,4 5 3 WNW 1008,3 - 0,0
23.02.2018 05:00:00 -1,9 -10,0 5 3 W 1008,2 - 0,0
23.02.2018 04:00:00 -1,5 -11,4 8 4 WNW 1008,5 - -
23.02.2018 03:00:00 -1,2 -10,8 5 3 W 1008,7 - 0,0
23.02.2018 02:00:00 -0,9 -14,1 4 2 N 1008,8 - 0,0
23.02.2018 01:00:00 0,0 -15,2 9 5 OZO 1008,5 - -
23.02.2018 00:00:00 0,0 -14,8 5 3 ZO 1008,3 - 0,0
22.02.2018 23:00:00 0,6 -15,0 4 2 ZW 1007,6 - 0,0
22.02.2018 22:00:00 2,0 -16,0 4 2 W 1006,9 - -
22.02.2018 21:00:00 3,4 -16,9 8 4 NW 1006,2 - 0,0
22.02.2018 20:00:00 4,7 -19,1 11 6 N 1005,5 - 0,0
22.02.2018 19:00:00 6,0 -18,8 9 5 NNW 1005,1 - -
22.02.2018 18:00:00 7,9 -17,2 18 10 NNW 1004,0 - 0,0
22.02.2018 17:00:00 9,4 -16,8 13 7 N 1003,4 - 0,0
22.02.2018 16:00:00 10,6 -15,9 15 8 N 1003,0 20 -
22.02.2018 15:00:00 10,4 -9,3 13 7 WNW 1003,4 - 0,0
22.02.2018 14:00:00 10,6 -10,9 15 8 N 1003,6 - 0,0
22.02.2018 13:00:00 10,4 -8,8 4 2 W 1004,3 30 -
22.02.2018 12:00:00 8,8 -8,3 5 3 NW 1005,2 - 0,0
22.02.2018 11:00:00 6,2 -5,5 8 4 ZZW 1005,9 - 0,0
22.02.2018 10:00:00 1,9 -4,4 5 3 WZW 1006,8 20 -
22.02.2018 09:00:00 0,6 -7,4 4 2 W 1007,1 - 0,0
22.02.2018 08:00:00 -1,2 -7,8 5 3 WNW 1007,1 - 0,0
22.02.2018 07:00:00 -1,4 -7,3 5 3 W 1007,5 - -
22.02.2018 06:00:00 -0,6 -7,6 5 3 W 1007,6 - 0,0
22.02.2018 05:00:00 0,0 -7,1 5 3 NW 1007,8 - 0,0
22.02.2018 04:00:00 0,5 -7,0 9 5 NNW 1008,4 - -
22.02.2018 03:00:00 1,2 -6,6 13 7 NNW 1008,8 - 0,0
22.02.2018 02:00:00 1,3 -6,1 13 7 NNW 1009,4 - 0,0
22.02.2018 01:00:00 2,2 -6,9 11 6 NNW 1009,4 - -
22.02.2018 00:00:00 2,4 -8,9 5 3 NW 1009,6 - 0,0
21.02.2018 23:00:00 2,8 -9,2 4 2 WNW 1009,6 - 0,0
21.02.2018 22:00:00 3,4 -9,3 8 4 NNW 1009,7 - -
21.02.2018 21:00:00 4,1 -10,0 8 4 NNW 1009,4 - 0,0
21.02.2018 20:00:00 5,3 -10,9 9 5 NNW 1008,8 - 0,0
21.02.2018 19:00:00 6,6 -12,1 11 6 NNW 1008,4 - -
21.02.2018 18:00:00 8,7 -14,4 11 6 N 1007,6 - 0,0
21.02.2018 17:00:00 10,2 -10,6 8 4 N 1007,0 - 0,0
21.02.2018 16:00:00 11,1 -9,3 13 7 N 1006,8 30 -
21.02.2018 15:00:00 11,2 -4,1 8 4 N 1006,7 - 0,0
21.02.2018 14:00:00 11,4 -3,9 13 7 NNO 1006,7 - 0,0
21.02.2018 13:00:00 11,0 -2,4 13 7 NNW 1006,8 50 -
21.02.2018 12:00:00 10,3 -1,8 9 5 NW 1006,9 - 0,0
21.02.2018 11:00:00 9,6 -2,7 13 7 NNW 1007,2 - 0,0
21.02.2018 10:00:00 7,4 -1,8 5 3 NW 1007,9 30 -
21.02.2018 09:00:00 4,8 -1,7 8 4 NNW 1008,9 - 0,0
21.02.2018 08:00:00 4,5 -2,2 13 7 NNW 1008,4 - 0,0
21.02.2018 07:00:00 5,0 -1,0 18 10 NNW 1008,1 - -
21.02.2018 06:00:00 5,0 0,0 8 4 NNW 1008,7 - 0,0
21.02.2018 05:00:00 6,0 0,3 15 8 NNW 1008,4 - 0,0
21.02.2018 04:00:00 6,3 0,6 18 10 NNW 1009,0 - -
21.02.2018 03:00:00 6,8 1,1 18 10 NNW 1009,2 - 0,0
21.02.2018 02:00:00 6,4 0,9 9 5 NW 1010,6 - 0,0
21.02.2018 01:00:00 6,8 0,9 8 4 WNW 1010,9 - -
21.02.2018 00:00:00 6,9 0,8 9 5 NW 1011,0 - 0,0
20.02.2018 23:00:00 7,0 1,1 15 8 NNW 1011,4 - 0,0
20.02.2018 22:00:00 7,3 0,7 11 6 WNW 1012,2 - -
20.02.2018 21:00:00 7,3 0,5 9 5 NW 1012,8 - 0,0
20.02.2018 20:00:00 7,8 0,5 8 4 NW 1012,5 - 0,0
20.02.2018 19:00:00 9,2 1,4 16 9 NNW 1011,4 - -
20.02.2018 18:00:00 10,8 1,9 18 10 NNW 1011,0 - 0,0
20.02.2018 17:00:00 12,2 2,3 18 10 NW 1010,6 - 0,0
20.02.2018 16:00:00 13,4 2,3 18 10 NNW 1009,7 30 -
20.02.2018 15:00:00 13,8 3,5 15 8 WNW 1010,7 - 0,0
20.02.2018 14:00:00 12,9 3,3 15 8 W 1011,7 - 0,0
20.02.2018 13:00:00 13,2 3,3 16 9 WNW 1012,0 30 -
20.02.2018 12:00:00 12,3 3,5 13 7 WNW 1012,7 - 0,0
20.02.2018 11:00:00 11,4 3,4 13 7 NW 1013,1 - 0,0
20.02.2018 10:00:00 10,9 3,4 8 4 NNW 1012,7 30 -
20.02.2018 09:00:00 8,9 3,9 11 6 NW 1012,6 - 0,0
20.02.2018 08:00:00 7,9 3,5 9 5 NNW 1012,5 - 0,0
20.02.2018 07:00:00 9,1 3,5 15 8 NNW 1012,4 - -
20.02.2018 06:00:00 8,6 3,4 11 6 N 1012,6 - 0,0
20.02.2018 05:00:00 7,0 2,9 4 2 NNW 1013,6 - 0,0
20.02.2018 04:00:00 7,3 3,0 4 2 WNW 1013,4 - -
20.02.2018 03:00:00 7,3 3,0 5 3 W 1013,9 - 0,0
20.02.2018 02:00:00 6,9 3,0 2 1 W 1014,2 - 0,0
20.02.2018 01:00:00 8,1 3,0 4 2 WZW 1014,2 - -
20.02.2018 00:00:00 9,0 3,4 4 2 NW 1014,1 - 0,0
19.02.2018 23:00:00 9,2 4,0 8 4 W 1014,3 - 0,0
19.02.2018 22:00:00 9,9 4,1 5 3 NW 1014,1 - -
19.02.2018 21:00:00 10,0 4,1 4 2 NNW 1014,5 - 0,0
19.02.2018 20:00:00 9,8 4,4 8 4 W 1014,3 - 0,0
19.02.2018 19:00:00 10,8 4,5 8 4 NNW 1014,3 - -
19.02.2018 18:00:00 12,0 4,7 8 4 WNW 1013,9 - 0,0
19.02.2018 17:00:00 13,9 5,0 9 5 WNW 1013,5 - 0,0
19.02.2018 16:00:00 13,4 5,3 4 2 ZZW 1013,9 30 -
19.02.2018 15:00:00 13,1 4,8 4 2 NW 1014,5 - 0,0
19.02.2018 14:00:00 12,5 4,9 4 2 ZW 1015,4 - 0,0
19.02.2018 13:00:00 11,6 4,8 4 2 ONO 1016,2 30 -
19.02.2018 12:00:00 11,1 4,5 8 4 OZO 1016,8 - 0,0
19.02.2018 11:00:00 10,5 4,4 8 4 ZO 1016,9 - 0,0
19.02.2018 10:00:00 7,9 3,9 8 4 ZO 1017,7 30 -

tt = temperatuur
td = dauwpunt
ff = windsnelheid
dd = windrichting
ppp = luchtdruk
vv = zicht
rr = neerslag

Weerstations in de omgeving